This demonstration page uses our WeatherBlox Daily Observations layout. Learn more.

Left ArrowRight Arrow

47.50024, -111.30081

Hourly Observations for January 10, 2016

Temp ( °F °C ) Dew Point ( °F °C ) Humidity (%) Winds ( mph kmh ) Pressure ( in mb ) Visibility ( mi km ) Precip ( " mm )
12:53 am 00:53 Clear 12 -11.1 6 -14.4 77 77 SSW 14 22 30.26 1025 10 16 0.00 0.00
1:53 am 01:53 Clear 14 -10 7 -13.9 73 73 SSW 15 24 30.25 1025 10 16 0.00 0.00
2:53 am 02:53 Clear 13 -10.6 7 -13.9 77 77 SSW 15 24 30.27 1025 10 16 0.00 0.00
3:53 am 03:53 Clear 15 -9.4 8 -13.3 74 74 SSW 15 24 30.26 1025 10 16 0.00 0.00
4:53 am 04:53 Clear 16 -8.9 9 -12.8 74 74 SSW 17 28 30.24 1024 10 16 0.00 0.00
5:53 am 05:53 Clear 14 -10 6 -14.4 71 71 SW 15 24 30.26 1025 10 16 0.00 0.00
6:53 am 06:53 Clear 13 -10.6 6 -14.4 74 74 SSW 17 28 30.26 1025 10 16 0.00 0.00
7:53 am 07:53 Clear 15 -9.4 7 -13.9 70 70 SSW 16 26 30.26 1025 10 16 0.00 0.00
8:53 am 08:53 Sunny 18 -7.8 11 -11.7 74 74 SSW 13 20 30.26 1025 10 16 0.00 0.00
9:53 am 09:53 Sunny 18 -7.8 11 -11.7 74 74 SSW 15 24 30.27 1025 10 16 0.00 0.00
10:53 am 10:53 Sunny 23 -5 15 -9.4 72 72 SW 17 28 30.25 1025 10 16 0.00 0.00
11:53 am 11:53 Sunny 25 -3.9 17 -8.3 72 72 WSW 13 20 30.29 1026 10 16 0.00 0.00
12:53 pm 12:53 Sunny 28 -2.2 19 -7.2 69 69 SSW 20 31 30.23 1024 10 16 0.00 0.00
1:53 pm 13:53 Sunny 30 -1.1 19 -7.2 64 64 SW 21 33 30.21 1023 10 16 0.00 0.00
2:53 pm 14:53 Cloudy 30 -1.1 21 -6.1 69 69 SW 15 24 30.22 1023 10 16 0.00 0.00
3:53 pm 15:53 Mostly Cloudy 29 -1.7 19 -7.2 66 66 WSW 14 22 30.21 1023 10 16 0.00 0.00
4:53 pm 16:53 Cloudy 28 -2.2 18 -7.8 66 66 SW 16 26 30.23 1024 10 16 0.00 0.00
5:53 pm 17:53 Mostly Cloudy 25 -3.9 16 -8.9 69 69 SW 14 22 30.25 1025 10 16 0.00 0.00
6:53 pm 18:53 Mostly Clear 26 -3.3 16 -8.9 66 66 SW 18 30 30.23 1024 10 16 0.00 0.00
7:53 pm 19:53 Clear 23 -5 15 -9.4 72 72 SSW 17 28 30.25 1024 10 16 0.00 0.00
8:53 pm 20:53 Clear 23 -5 15 -9.4 72 72 SSW 20 31 30.25 1024 10 16 0.00 0.00
9:53 pm 21:53 Clear 19 -7.2 12 -11.1 74 74 SSW 15 24 30.27 1025 10 16 0.00 0.00
10:53 pm 22:53 Clear 22 -5.6 13 -10.6 68 68 SSW 17 28 30.24 1024 10 16 0.00 0.00
11:53 pm 23:53 Clear 23 -5 14 -10 68 68 SSW 17 28 30.22 1023 10 16 0.00 0.00

Powered by AerisWeather